Wind_Speed
19 21 21 21 21 21 21 20 20 20 19 18 18 17 16 15 14 13 12 12 12 11 11 11 10 10 11 12 13 14 13 13 13 14 15 16 17 16 17 17 16 16 16 16 16 16 18 21 20 19 20 20 19 18 16 16 15 15 13 13 13 13 12 10 7 8 10 13 14 12 11 10 9 8 7 5 6 6 6 7 7 7 7 6 6
22 23 23 23 23 23 22 21 20 19 19 17 16 16 16 15 14 13 13 12 12 12 11 11 11 11 12 12 12 12 12 10 10 13 14 15 14 14 14 13 13 13 14 14 14 15 16 17 16 16 16 16 16 15 14 14 14 14 13 13 13 12 12 10 7 8 9 11 13 13 12 11 10 9 8 6 6 7 7 7 8 8 7 7 7
24 24 24 24 24 24 23 22 20 19 19 17 16 17 17 16 15 15 14 14 14 13 12 11 12 12 12 11 11 10 8 8 8 10 10 9 8 7 6 6 7 7 8 8 9 10 11 11 11 12 13 13 13 12 12 13 13 13 13 12 12 12 11 10 7 7 8 8 10 12 13 13 12 10 8 6 6 7 7 8 8 8 8 9 9
23 24 25 25 25 25 24 22 21 20 20 19 18 18 17 16 15 15 14 15 14 13 12 13 13 12 11 11 10 10 9 9 9 8 8 7 6 5 5 4 3 2 2 3 4 5 6 7 8 9 10 10 10 11 11 11 12 12 11 11 11 11 10 9 7 6 7 7 8 10 11 11 12 11 9 8 8 7 8 8 9 9 10 11 11
22 22 22 22 23 24 23 21 21 22 21 20 19 19 17 16 15 15 16 15 14 14 14 14 13 12 12 12 12 13 13 13 13 13 12 11 10 9 8 7 6 5 3 2 2 3 4 5 7 8 9 10 10 11 12 12 12 12 11 11 11 11 10 9 7 6 6 7 7 8 8 8 9 11 11 10 9 9 9 10 11 12 12 12 11
21 20 18 19 20 21 22 23 23 23 22 21 20 18 17 17 17 17 17 16 16 16 15 14 14 15 16 16 17 16 16 15 14 13 13 12 12 11 10 9 9 8 8 8 8 8 8 8 8 9 9 10 11 12 12 12 12 11 11 11 11 10 10 8 8 6 6 7 7 7 7 7 7 8 9 10 10 10 11 12 13 14 13 12 11
20 19 18 18 17 19 21 24 25 24 23 22 21 20 19 19 18 19 19 18 18 18 17 16 16 18 19 19 19 17 15 14 13 12 12 12 12 12 11 11 11 11 11 12 12 11 11 10 10 10 10 10 10 10 10 9 9 9 9 9 10 10 9 9 8 7 7 6 6 6 6 6 6 7 7 8 9 10 12 13 13 12 12 12 12
21 20 19 18 16 17 19 22 23 23 23 23 22 21 20 20 19 19 19 19 20 19 18 17 17 17 18 17 16 15 14 13 12 11 11 11 12 11 11 11 10 11 11 12 12 12 12 12 11 10 10 9 8 7 7 7 7 7 8 8 9 9 8 8 8 8 7 6 6 6 6 6 6 6 6 6 7 8 10 12 13 13 12 12 12
22 21 20 18 16 16 18 20 21 23 24 23 23 22 21 21 20 20 20 19 19 19 18 17 16 16 15 15 14 14 13 12 11 10 10 10 10 10 9 9 9 9 9 10 10 11 11 11 12 11 11 11 9 8 8 8 8 8 8 8 8 8 8 8 8 7 7 6 6 6 6 7 7 7 7 7 6 7 8 10 13 15 15 14 14
22 21 20 19 17 17 18 20 21 23 24 24 23 23 22 22 21 20 19 19 18 18 17 16 15 14 13 13 13 13 12 11 10 10 9 9 8 8 8 7 7 7 7 7 7 8 10 10 11 12 12 11 11 10 9 9 9 9 9 9 9 8 8 8 8 7 7 6 6 6 7 7 7 8 8 8 8 8 8 9 11 13 15 16 17
23 22 21 20 19 20 21 22 23 24 25 26 25 25 24 23 21 20 19 18 18 17 17 15 14 13 13 12 13 13 13 12 11 10 9 8 7 6 5 5 5 6 6 6 5 6 8 9 11 12 12 12 11 10 10 10 10 9 9 9 9 8 8 8 8 8 7 6 6 7 7 8 9 9 10 10 10 10 10 11 12 13 14 16 17
25 24 23 22 22 24 24 24 24 26 27 28 28 26 25 23 21 21 20 18 17 17 16 16 14 13 13 13 13 13 13 12 12 10 9 7 6 4 3 2 2 3 4 5 6 7 8 9 10 12 13 13 12 12 11 11 10 9 9 8 8 8 8 8 8 9 8 7 7 8 9 10 11 11 11 12 12 13 13 13 14 15 15 16 17
27 26 25 25 25 25 24 24 24 26 27 29 29 28 26 24 22 22 20 19 18 17 17 16 16 14 13 13 13 13 12 12 11 10 9 8 6 5 3 1 2 3 5 7 8 9 10 10 11 12 14 14 14 13 12 12 11 10 8 8 8 8 8 9 9 10 10 10 10 11 11 12 12 12 13 13 14 15 16 16 16 17 16 16 16
28 27 27 27 27 26 25 24 24 24 25 27 29 29 27 25 24 22 21 21 20 18 18 17 17 15 14 14 14 13 12 11 10 10 9 9 8 6 5 4 5 6 7 8 10 10 11 11 12 13 14 15 15 14 13 12 11 10 9 8 8 8 8 9 11 11 12 13 13 13 14 14 14 14 14 15 16 17 17 18 18 18 17 16 16
29 29 29 28 27 27 26 25 25 24 23 25 27 29 28 27 25 23 22 22 21 20 19 18 18 17 16 16 16 15 14 13 11 10 9 9 9 9 8 7 8 9 10 10 11 11 12 12 13 13 14 15 16 15 13 12 11 10 10 9 9 9 9 10 11 13 14 14 15 14 14 15 15 14 15 16 17 18 19 19 20 20 20 19 18
26 27 29 29 28 28 29 28 27 25 24 24 25 26 27 26 25 24 24 24 24 23 21 20 19 20 19 19 18 17 17 16 15 13 12 12 12 12 12 11 11 12 12 13 13 13 13 13 14 14 14 15 16 16 14 13 12 11 11 10 10 9 10 11 12 14 15 15 16 16 15 15 16 15 15 16 17 18 19 20 20 21 22 21 20
22 23 24 26 27 28 30 30 29 27 26 24 23 23 23 23 22 22 24 26 26 26 24 23 22 22 21 21 21 20 20 19 18 17 16 15 15 16 16 15 15 15 14 14 14 14 14 14 14 14 15 16 16 16 15 13 11 11 11 11 10 10 10 11 13 14 16 16 16 16 16 16 17 17 17 16 17 18 19 20 20 21 23 24 24
19 19 20 22 24 26 28 30 30 29 27 23 21 20 20 21 22 21 22 24 25 25 26 26 25 24 24 24 24 23 23 21 21 21 20 19 19 18 18 18 17 18 17 16 16 16 16 15 15 15 15 16 17 17 15 13 12 11 11 11 10 10 10 11 13 15 16 17 16 16 16 16 17 18 17 17 18 18 19 20 21 22 24 26 27
18 19 20 22 23 26 27 28 29 30 28 25 22 20 20 22 22 22 21 21 22 23 25 26 27 27 27 27 27 26 25 24 24 24 24 24 23 21 21 20 20 20 19 19 19 18 17 17 16 17 16 16 17 17 16 14 12 11 10 10 10 10 10 11 13 14 15 16 16 16 16 17 17 18 17 18 18 19 20 20 21 22 24 26 27
19 21 23 24 25 26 26 26 27 28 27 27 25 24 23 22 22 22 21 21 22 23 23 24 26 27 29 30 29 29 28 28 27 27 27 27 26 24 24 23 22 22 22 22 22 20 19 19 18 18 17 17 17 17 17 15 13 12 10 10 9 9 10 11 13 14 15 16 16 16 16 17 18 17 17 17 18 19 19 20 22 23 24 26 26
20 23 23 22 23 25 25 24 24 26 26 27 27 26 25 23 23 23 23 23 24 23 23 24 25 26 28 30 31 31 31 31 30 30 29 29 29 27 25 24 24 23 22 23 22 22 22 21 19 19 19 18 17 17 17 16 14 12 11 9 9 9 9 11 12 13 14 15 15 16 16 17 18 17 17 17 17 18 19 20 22 24 25 26 27
21 22 20 18 19 23 25 23 23 25 26 28 28 27 26 26 25 25 26 26 26 26 25 24 24 26 28 30 32 34 34 33 33 33 32 32 33 31 28 25 25 24 24 24 24 24 23 20 19 20 20 19 18 18 17 16 14 12 11 10 9 9 9 10 11 12 14 15 15 16 17 18 19 18 18 18 18 18 20 21 23 25 26 26 27
21 20 18 15 15 20 24 24 24 25 26 27 28 27 27 26 26 26 28 27 26 26 25 24 25 26 27 29 32 35 37 37 36 36 35 35 35 35 32 28 26 26 27 28 27 25 23 20 20 21 21 21 20 19 17 16 15 13 11 10 10 9 8 9 10 12 13 15 16 17 18 19 20 20 19 19 20 20 22 24 25 26 27 27 27
22 20 18 15 13 18 23 25 27 27 27 28 28 28 28 28 28 28 28 27 26 26 26 26 26 26 28 30 33 37 41 41 40 39 39 37 37 37 35 31 29 29 29 28 29 27 24 22 21 22 22 22 21 20 18 17 16 14 12 11 10 9 8 8 10 12 13 15 16 18 19 21 21 21 20 21 22 24 25 26 26 26 28 28 28
23 20 18 14 11 12 18 24 28 29 28 28 28 28 29 30 29 29 29 27 27 27 27 26 26 29 30 31 35 42 45 43 42 42 41 40 40 40 37 35 33 31 29 29 31 31 28 23 22 23 23 24 23 21 19 18 16 14 12 11 10 9 8 9 10 12 14 15 17 18 20 22 22 22 22 22 24 25 26 26 26 27 29 30 29
23 21 17 14 11 9 12 19 24 26 28 29 29 29 30 31 30 30 29 27 26 27 27 27 28 30 31 33 40 44 44 44 44 44 43 43 43 43 42 39 37 36 35 34 34 36 33 26 23 25 25 25 24 21 19 18 16 14 12 11 10 10 9 10 12 14 15 16 18 19 20 21 22 22 23 23 24 26 26 27 27 28 29 30 30
23 22 18 15 12 11 13 17 19 22 25 26 27 28 30 30 29 28 28 27 26 27 26 26 27 29 31 36 40 41 43 45 45 44 44 45 45 48 50 46 44 44 44 41 39 39 37 31 25 26 26 25 24 22 19 18 16 14 12 11 11 12 11 12 14 15 16 17 19 20 21 22 22 23 23 24 25 26 27 28 28 29 29 30 30
23 23 20 16 13 13 15 18 20 20 21 23 24 25 26 27 27 27 27 26 25 25 24 24 25 27 31 33 35 37 40 45 48 46 44 45 46 49 53 51 48 49 49 47 45 42 40 36 29 26 27 26 24 22 19 17 16 14 13 13 14 14 14 15 16 17 18 19 21 22 22 22 23 23 24 25 26 28 29 29 29 29 30 31 30
23 24 21 17 16 16 16 19 22 22 22 22 22 22 23 23 23 23 22 22 21 21 22 23 25 28 29 31 33 37 39 45 53 53 45 44 47 50 53 51 49 51 52 51 52 48 41 37 33 29 27 26 24 21 19 17 17 15 14 15 15 16 16 17 18 18 19 21 23 24 24 24 23 24 25 27 28 29 30 30 30 30 30 31 31
25 23 21 18 19 18 17 19 23 24 24 24 21 20 19 18 18 17 17 18 19 20 23 25 29 30 32 34 36 38 39 43 52 54 47 43 46 49 51 50 50 53 54 54 55 52 43 38 35 30 26 25 23 20 19 18 18 16 16 16 16 17 17 18 19 19 20 22 25 26 25 25 25 25 26 28 30 31 31 31 31 30 31 31 32
27 24 23 22 22 21 19 20 22 23 25 24 21 19 18 16 15 15 17 20 22 25 27 29 32 33 35 37 36 36 37 38 44 51 50 41 36 37 40 44 48 53 57 57 57 55 46 40 36 30 25 24 22 20 20 20 20 18 17 18 18 17 17 19 20 21 21 24 26 27 26 27 29 29 30 31 32 32 32 32 31 31 31 31 32
28 26 26 26 25 23 21 22 22 23 25 24 22 19 17 16 17 19 22 25 27 29 30 32 34 36 37 39 37 36 37 36 39 47 47 36 28 26 30 37 44 51 56 57 58 59 51 41 36 31 26 24 22 21 21 21 21 20 19 20 20 18 19 20 21 23 24 26 28 29 30 32 32 33 34 34 34 33 32 32 32 31 31 31 31
26 26 28 29 27 24 22 23 23 23 23 22 21 19 19 21 24 26 27 29 30 30 32 34 36 37 38 39 38 37 37 36 37 40 37 30 26 25 26 32 38 47 55 58 62 64 54 42 41 36 28 26 25 22 22 22 22 22 21 22 22 20 20 21 23 25 26 28 28 29 31 33 33 34 36 36 35 34 33 32 32 32 31 31 31
27 27 30 31 28 25 23 23 24 24 23 22 22 23 25 28 29 29 28 28 29 30 32 33 34 35 36 37 38 37 36 34 32 32 30 30 31 29 28 32 38 46 54 58 65 66 53 42 44 40 33 32 28 21 20 23 23 23 24 24 24 23 23 24 25 27 29 30 30 29 30 32 33 34 35 35 35 34 34 33 32 31 31 31 32
28 30 34 33 29 27 26 25 24 24 24 26 27 29 30 31 30 28 27 27 27 28 29 29 28 29 31 33 35 36 36 34 31 31 31 32 32 29 29 34 39 47 54 56 61 63 52 44 45 43 40 35 25 18 21 24 24 25 26 26 27 26 26 27 28 30 31 33 33 31 32 34 33 33 34 34 35 35 34 33 32 31 31 31 32
27 32 37 34 29 28 28 28 28 28 29 31 32 32 31 30 28 26 25 24 24 24 24 23 23 24 26 29 32 35 37 34 31 32 34 35 35 33 32 34 38 45 50 51 56 57 48 44 46 45 41 32 22 21 25 24 23 25 27 27 28 28 28 29 31 33 34 35 34 32 33 34 34 34 35 35 35 35 34 33 32 32 31 31 31
29 33 36 33 28 28 30 31 33 33 34 34 33 30 28 27 26 24 22 22 21 21 20 20 20 22 24 26 30 33 34 32 31 33 34 38 40 37 36 37 38 39 37 38 45 46 39 40 45 42 36 28 23 23 23 21 22 26 28 29 28 27 27 29 31 33 34 36 37 34 33 34 34 35 35 35 35 35 34 33 32 32 32 31 29
32 33 34 34 32 32 33 32 32 33 33 32 30 27 26 24 22 20 20 19 19 19 19 19 20 22 24 26 28 30 30 30 32 33 34 38 39 38 39 40 35 30 25 25 31 33 33 39 42 37 32 27 22 22 22 22 24 27 29 29 27 26 28 29 31 33 34 37 37 35 34 34 34 35 34 34 35 34 32 32 32 33 32 29 25
34 31 33 37 35 34 34 32 31 31 30 29 27 26 24 22 20 19 19 19 19 19 20 20 21 23 25 26 26 28 29 29 30 31 33 35 32 31 34 32 23 18 18 20 24 27 30 35 35 31 28 24 21 21 22 22 24 26 28 28 28 29 30 30 32 34 35 36 36 35 34 34 34 34 34 34 33 32 32 32 32 32 31 26 24
30 29 34 37 35 34 32 30 30 29 27 26 25 24 22 20 19 19 19 19 20 20 20 21 22 24 25 26 27 28 29 29 28 29 31 30 24 21 21 18 13 12 16 19 22 25 29 30 29 27 25 24 23 25 24 22 23 24 26 29 30 30 31 32 33 34 34 35 35 35 34 33 33 34 34 33 32 32 31 32 32 31 29 25 24
26 29 33 33 32 31 29 29 29 28 27 25 24 22 20 18 17 17 17 17 18 19 20 21 22 24 25 27 28 29 28 27 27 27 28 25 18 14 15 16 15 15 17 19 23 27 29 29 28 26 26 27 27 28 27 27 25 23 26 30 31 30 31 33 33 32 33 34 34 34 34 33 34 35 34 33 32 31 32 32 31 30 28 26 26
29 30 30 30 30 31 31 31 30 29 27 25 23 19 17 16 15 15 15 16 17 18 19 21 23 25 27 28 30 29 27 26 26 26 26 22 15 12 16 19 18 18 19 22 26 30 31 30 28 28 28 28 27 27 28 27 24 23 27 29 30 31 32 33 32 31 32 33 33 33 33 34 35 35 34 32 32 32 32 31 30 28 27 27 27
32 32 31 30 30 31 31 30 28 26 24 21 19 18 18 17 17 19 20 21 20 20 20 22 24 26 29 30 29 27 25 25 25 24 23 18 13 11 15 18 20 21 21 23 27 30 30 29 29 29 29 27 26 25 25 23 22 23 26 27 29 30 30 30 30 30 31 32 32 32 33 33 33 33 32 31 31 31 31 30 28 27 27 28 28
32 32 32 31 30 29 28 25 23 21 19 16 16 18 21 23 26 27 27 24 22 21 21 23 25 27 29 29 27 25 24 24 23 22 19 14 11 11 13 17 20 20 20 22 25 27 29 29 29 29 27 25 24 24 24 24 24 25 26 27 28 28 27 27 29 30 31 31 32 32 32 31 31 31 30 30 30 31 30 28 27 27 27 28 29
32 32 33 33 32 30 27 22 19 18 18 19 22 25 27 28 28 26 24 22 21 21 21 22 24 26 27 27 25 24 23 22 20 18 14 10 9 10 12 16 19 19 21 23 25 28 30 30 28 26 24 23 23 24 24 25 25 25 26 26 26 25 26 28 29 31 32 32 31 31 31 30 30 30 29 29 29 29 29 27 27 27 28 28 29
30 29 27 26 25 24 23 22 21 21 23 27 31 30 25 22 20 20 21 22 22 21 21 22 25 28 29 27 24 23 21 18 17 14 11 8 8 9 12 16 19 20 22 25 27 30 31 29 25 23 23 25 25 24 23 24 25 25 25 24 24 25 27 29 31 32 32 32 31 31 30 30 30 29 29 29 29 29 28 27 27 28 28 29 30
23 21 21 20 20 20 22 23 26 28 30 32 32 28 23 20 18 20 24 26 26 26 28 31 33 33 30 26 22 19 17 15 14 11 7 5 6 8 12 15 17 19 22 25 26 26 25 24 24 26 28 27 25 24 24 25 24 24 23 24 25 27 29 31 32 32 32 31 31 30 30 30 30 29 28 28 28 28 28 28 28 28 28 29 30
19 18 18 19 20 22 23 24 25 27 29 29 28 28 27 27 28 29 32 33 34 35 37 37 35 32 26 21 18 15 13 12 11 7 4 4 6 10 13 15 17 19 22 24 22 20 19 21 24 26 25 23 22 23 24 24 23 23 24 26 28 29 30 31 31 31 32 32 31 30 30 29 28 28 27 27 27 28 28 27 27 27 28 29 29
18 17 17 18 18 19 21 23 23 24 27 29 30 31 32 33 34 36 38 39 38 36 34 31 27 24 20 17 14 12 10 8 7 4 3 5 9 12 15 18 20 22 23 22 20 19 22 24 25 23 22 23 24 25 24 23 23 24 26 28 29 29 30 30 31 32 32 32 31 30 29 28 27 26 26 26 26 27 27 27 26 26 27 27 28
16 16 17 18 19 20 23 25 26 27 28 30 31 31 29 27 28 32 34 34 31 29 25 23 20 18 16 13 10 8 6 5 3 2 4 8 11 14 17 20 23 24 22 20 20 23 25 25 24 24 25 26 26 25 24 23 23 25 27 29 29 30 30 31 31 32 31 31 30 29 27 26 25 25 25 25 26 26 26 25 25 25 25 26 26
18 19 20 21 22 24 25 26 26 27 26 26 25 24 21 20 22 24 25 25 24 22 21 19 16 14 11 8 5 4 4 2 2 2 4 8 10 12 14 17 20 22 22 23 24 25 25 25 24 26 27 27 27 26 25 23 24 26 29 30 30 30 31 32 32 31 31 30 29 27 26 25 25 24 24 24 24 25 24 24 25 25 24 24 25
Wind_Direction
213 215 214 215 215 216 217 215 212 210 208 204 203 203 203 202 200 199 198 201 202 201 205 210 212 212 214 219 221 224 224 224 231 240 245 247 248 251 255 259 261 262 263 262 261 261 264 266 269 272 275 280 284 285 286 283 280 280 282 286 290 293 296 301 291 273 274 281 285 285 285 292 299 306 308 293 288 294 300 312 323 329 330 328 320
215 216 217 218 218 219 219 219 218 217 216 213 209 206 204 202 199 198 198 197 196 198 202 206 209 211 213 217 219 223 225 221 224 232 239 244 245 247 251 256 260 261 261 262 261 258 260 265 270 272 274 277 279 281 280 277 276 280 284 286 289 293 297 301 294 277 270 274 284 292 296 298 301 308 310 300 294 296 298 304 311 316 318 318 315
215 219 221 221 221 221 219 218 218 219 219 216 212 208 206 204 201 201 198 193 192 195 198 202 206 208 209 211 213 218 221 217 219 224 226 229 228 228 232 238 246 251 254 259 260 259 261 264 266 268 270 273 276 277 274 274 277 280 285 290 294 297 299 303 299 284 274 266 273 287 297 302 305 310 311 307 301 297 297 301 305 306 307 308 305
216 220 222 223 223 222 219 216 216 217 219 216 211 209 207 205 203 200 196 192 192 190 191 195 196 198 198 199 198 195 191 183 178 173 164 154 147 142 138 143 154 169 215 249 259 266 272 275 276 276 277 278 278 278 278 281 285 288 294 300 304 306 307 308 305 293 284 273 265 274 286 295 301 307 312 313 308 304 304 304 304 302 300 298 295
217 222 225 225 226 225 221 216 214 217 219 215 211 209 206 202 199 195 191 189 188 185 186 188 186 185 183 179 173 167 161 153 145 140 132 124 118 115 113 109 102 93 80 51 12 348 332 318 310 304 301 300 297 298 301 301 302 303 306 309 310 311 312 312 311 306 294 282 272 270 274 278 286 296 305 310 308 306 304 303 302 301 299 295 290
214 220 225 228 227 226 220 214 213 215 215 211 209 208 202 197 192 188 186 183 181 181 181 179 175 171 164 159 155 153 151 146 141 135 127 118 111 108 104 96 85 73 61 48 37 24 11 357 345 334 325 319 316 314 313 311 310 310 312 313 311 311 311 310 309 306 295 285 278 274 272 269 268 275 286 294 297 298 297 297 298 299 300 299 292
205 206 212 216 216 215 212 211 210 207 207 208 207 202 195 190 185 183 181 178 176 177 176 174 170 164 158 155 154 154 152 147 141 133 124 116 108 104 97 87 77 67 59 51 44 37 28 19 9 358 345 334 326 321 314 309 307 307 310 311 309 309 306 304 302 299 293 287 283 280 280 275 264 260 264 270 280 289 294 296 297 298 300 301 298
199 197 199 200 200 203 203 203 201 198 202 205 202 196 189 183 179 179 177 175 175 176 177 177 174 169 164 161 159 156 153 148 142 134 125 118 110 105 98 87 77 68 60 54 49 43 36 29 22 14 5 356 346 335 325 316 312 311 311 310 309 306 302 301 300 297 295 293 292 292 289 286 279 274 270 267 268 277 288 296 300 302 301 301 299
199 196 196 195 195 195 193 194 194 195 199 200 196 191 184 179 177 177 177 176 176 177 181 184 184 181 177 173 167 161 159 155 149 140 132 125 116 108 99 89 78 70 60 53 48 42 37 31 25 19 12 8 2 353 344 336 331 326 320 316 312 309 306 305 303 300 301 303 303 301 295 291 289 287 285 283 280 278 284 294 301 306 307 306 303
207 202 197 194 192 190 188 189 191 194 196 194 192 188 183 180 179 179 178 177 177 178 183 187 188 189 187 184 179 174 171 167 160 151 143 136 127 114 102 90 76 67 57 48 41 36 32 27 23 18 12 8 2 357 353 347 342 333 324 320 318 317 315 312 307 303 303 303 302 301 299 297 294 292 292 290 291 290 292 294 296 299 301 301 301
217 210 204 197 191 189 191 191 191 194 195 192 189 187 185 185 183 181 181 181 180 180 183 187 188 187 187 188 188 186 184 179 172 164 157 150 141 129 110 92 76 63 51 40 31 23 20 19 17 13 8 4 359 356 354 349 343 333 325 321 320 320 317 314 307 300 296 295 296 297 299 300 299 300 301 299 298 297 296 295 292 290 287 288 291
225 216 209 204 198 194 193 194 194 196 196 192 189 189 190 190 188 186 187 188 187 186 187 189 187 184 184 187 189 190 191 187 183 178 175 171 164 157 134 94 60 39 27 19 15 7 4 6 7 7 3 359 355 354 353 347 340 331 324 320 318 318 315 310 304 297 295 293 292 293 293 295 298 301 303 301 299 296 295 293 291 288 285 283 285
234 226 217 211 208 203 199 198 200 201 200 196 193 193 195 196 195 194 195 196 196 195 195 195 192 189 188 188 188 190 191 189 187 188 189 190 193 197 203 246 316 339 344 350 354 353 352 352 354 357 358 355 351 349 348 344 337 329 322 317 314 314 311 306 301 297 295 294 293 292 293 293 294 296 298 297 295 293 292 291 289 287 286 284 284
241 236 226 219 215 213 209 207 208 209 206 202 199 199 200 202 202 203 203 203 204 205 204 204 202 200 200 200 199 196 194 192 191 193 200 206 212 221 236 261 289 309 321 328 331 334 340 341 342 347 351 350 346 342 340 338 333 327 322 318 316 314 308 302 298 296 294 293 294 295 296 296 294 294 294 293 293 292 291 289 288 287 285 284 284
241 238 233 226 220 218 217 215 215 215 212 209 207 206 206 207 209 210 211 211 212 212 212 212 212 212 215 215 214 211 207 205 204 208 219 229 234 242 253 266 280 293 303 311 315 317 323 329 334 337 341 342 338 334 332 331 330 327 325 323 320 315 308 301 297 295 294 294 296 298 298 297 294 292 292 293 293 293 293 291 289 288 288 288 287
240 237 235 231 224 221 220 219 218 217 215 213 213 213 212 214 217 218 218 218 218 218 219 220 219 221 225 227 227 224 221 220 222 227 236 245 252 257 260 265 274 283 291 300 307 309 311 318 324 327 329 331 331 328 325 326 326 326 327 327 322 316 309 304 300 297 296 297 298 299 298 295 292 289 291 293 291 291 291 290 289 289 291 293 293
243 239 238 235 230 226 223 221 219 217 217 217 216 218 219 220 222 222 222 223 223 224 225 226 226 227 231 234 236 234 233 234 236 239 243 248 256 262 265 268 273 278 283 293 301 303 304 309 314 317 318 321 324 324 321 320 321 322 325 325 321 318 312 305 302 299 298 299 300 299 299 296 292 292 294 293 291 290 289 289 290 292 294 296 298
249 243 238 236 233 231 228 225 223 221 222 222 221 222 223 223 221 221 223 225 227 228 230 232 233 234 237 239 240 241 241 242 244 246 247 250 256 262 267 269 272 275 280 288 294 296 299 301 305 308 310 313 318 320 317 314 314 316 320 321 319 318 315 308 303 300 299 300 301 300 301 299 295 296 298 298 298 298 295 294 294 294 296 298 300
239 233 228 226 227 230 229 227 225 224 224 224 224 223 223 222 221 221 222 223 225 227 230 233 235 238 241 241 242 244 244 245 248 251 252 254 258 262 266 267 270 274 278 284 288 291 296 298 299 300 302 306 312 314 312 309 309 312 315 316 317 317 315 310 306 304 302 301 303 303 302 300 298 299 302 303 304 303 301 299 297 296 297 299 300
228 224 219 217 221 225 227 227 226 225 225 224 224 225 224 222 222 222 221 220 223 224 225 230 235 239 243 243 244 245 245 246 249 253 256 257 258 261 263 261 264 270 274 279 283 287 293 295 293 294 296 300 306 308 307 305 305 308 310 309 311 314 313 310 308 306 304 304 304 304 303 299 298 301 304 304 304 302 302 301 301 300 300 300 300
226 218 214 215 221 224 223 225 225 225 225 224 225 227 227 227 226 226 225 224 225 226 227 231 237 242 244 245 246 248 248 249 249 252 256 255 254 256 258 256 257 264 269 273 276 283 291 291 287 289 292 295 301 302 302 302 300 299 302 302 305 309 311 310 309 308 306 307 307 306 303 299 298 301 302 301 301 300 301 302 302 302 302 302 301
220 211 207 212 220 222 220 218 217 218 218 218 221 224 226 227 227 227 228 228 229 232 234 237 243 246 247 248 249 249 249 249 250 251 253 252 252 255 260 261 259 260 265 268 270 279 289 287 280 285 289 290 295 297 297 295 292 291 293 295 301 306 308 311 312 311 309 309 309 307 303 300 299 300 300 299 299 299 299 301 302 302 302 301 300
205 197 198 201 209 217 218 215 214 215 214 213 217 218 219 222 222 224 227 228 232 237 240 244 247 250 252 251 251 251 249 247 246 246 248 250 253 254 259 263 260 258 263 266 266 274 284 281 274 280 287 287 288 291 291 288 284 285 287 290 295 298 302 311 313 310 310 310 311 309 303 300 299 298 297 296 296 297 299 301 303 302 301 300 298
190 186 189 188 195 209 214 214 215 216 215 214 215 214 215 218 220 223 227 230 235 241 244 245 248 253 255 254 255 252 247 243 243 245 247 249 251 251 253 258 259 261 265 263 259 266 278 277 272 276 283 283 283 285 284 281 278 279 282 285 289 292 300 311 314 311 311 312 312 308 302 299 298 297 295 294 296 299 301 303 304 304 303 300 297
184 184 185 183 183 200 211 215 216 215 215 215 215 215 216 218 221 224 228 231 235 240 242 244 251 256 259 260 258 251 247 246 248 251 250 249 250 250 250 253 256 262 270 265 255 260 270 272 268 272 277 278 278 279 277 274 274 275 279 281 282 289 299 309 314 313 313 313 311 306 301 298 297 296 297 298 299 301 303 304 305 305 305 302 296
189 187 185 184 179 181 198 211 216 216 216 215 215 217 219 221 223 225 229 231 234 238 243 249 256 261 264 264 259 255 254 254 253 253 250 249 250 250 250 252 255 260 269 270 261 257 263 266 262 265 272 273 273 273 272 270 272 273 275 277 280 286 295 303 311 313 312 312 309 305 303 301 299 299 299 301 301 301 302 304 305 306 306 303 298
194 190 187 186 189 189 188 199 210 215 216 217 216 218 220 222 223 225 229 233 236 241 247 254 260 265 267 265 263 265 265 263 261 258 254 253 253 251 251 255 259 261 265 270 267 259 258 261 260 260 266 268 268 268 268 269 271 272 273 276 279 283 289 297 307 311 311 311 310 309 308 305 301 300 300 301 301 301 302 302 303 305 305 304 300
198 196 193 192 200 200 189 192 200 204 209 211 212 214 216 218 221 225 231 235 238 243 248 254 259 262 264 264 268 271 271 270 266 259 256 260 259 252 251 256 260 261 261 266 269 263 255 255 258 257 258 261 264 266 267 267 268 269 272 274 277 281 284 292 301 307 310 313 315 313 309 305 301 300 300 300 301 302 302 302 302 303 304 304 301
206 203 200 205 211 204 192 192 195 195 198 200 201 206 209 214 219 223 228 233 237 242 245 249 253 257 261 265 269 273 275 274 266 255 253 260 258 253 255 259 261 260 261 264 267 265 258 253 253 252 251 256 261 264 264 264 265 267 270 274 277 280 283 288 296 303 309 314 314 310 306 303 300 299 299 300 302 304 303 304 304 304 304 304 301
212 211 212 216 213 202 193 193 195 195 196 195 194 199 204 210 216 221 227 236 243 248 252 257 260 264 268 270 273 275 277 278 274 267 261 258 254 253 257 262 263 261 263 265 267 267 263 254 248 246 246 251 258 261 261 262 264 266 269 274 278 280 283 289 295 300 306 310 310 306 304 304 303 301 301 303 305 305 305 306 307 307 306 304 300
216 221 226 222 210 200 195 196 196 197 198 196 195 198 202 209 218 226 235 243 251 256 260 263 265 267 269 272 276 278 278 283 286 280 274 270 268 263 263 267 266 262 262 265 267 266 262 254 245 239 239 245 252 257 258 260 263 265 269 273 276 279 284 291 296 297 301 306 307 304 302 303 303 302 304 307 307 305 305 306 307 307 305 303 300
221 228 232 227 214 204 201 200 199 199 200 200 202 206 213 221 228 235 242 250 257 261 263 265 266 267 269 273 278 281 282 287 290 284 283 291 294 282 276 275 269 261 260 265 267 263 257 250 240 230 228 236 244 250 253 256 261 264 269 273 275 278 284 291 297 297 299 305 306 303 301 300 300 301 304 306 306 305 306 306 306 305 303 301 298
225 230 233 231 222 210 206 204 202 201 202 205 212 220 225 229 234 242 251 258 262 264 266 268 270 273 275 277 280 283 284 287 290 291 296 307 306 295 291 287 274 261 257 259 262 259 254 247 237 225 219 224 229 236 245 252 260 265 269 273 273 275 281 290 298 298 299 304 304 299 297 296 296 298 301 304 304 305 306 305 304 303 302 300 296
226 233 234 231 223 213 208 207 206 207 210 214 221 227 230 235 244 252 257 260 262 265 269 271 274 277 280 281 282 285 287 289 292 296 299 301 300 299 297 288 274 260 254 254 257 255 251 247 240 228 220 220 217 220 237 248 257 263 268 272 273 275 280 288 297 299 300 302 301 297 294 293 294 296 300 302 303 304 304 304 303 302 300 298 295
230 236 233 227 221 215 211 210 210 211 214 218 225 233 239 246 252 254 253 257 261 266 270 272 277 280 282 284 285 287 289 291 293 295 295 296 297 296 292 285 274 263 258 257 258 254 248 246 243 235 229 223 212 213 234 243 252 261 267 273 275 277 282 289 296 299 299 300 300 298 295 294 296 298 301 302 302 303 303 303 302 301 299 298 295
235 236 228 220 218 217 216 218 219 219 223 228 235 240 245 248 248 246 250 259 265 269 272 276 281 285 288 290 290 288 288 291 294 295 295 295 293 289 285 282 275 267 264 264 264 259 251 245 243 238 234 227 212 215 230 238 249 258 266 273 277 280 285 290 295 297 298 299 298 295 292 293 297 300 301 301 301 302 302 301 301 300 299 298 296
237 236 223 212 213 216 216 219 222 226 230 234 237 240 241 241 241 245 253 261 265 270 277 283 290 295 299 298 294 291 289 292 296 296 293 292 291 289 286 280 274 271 275 278 272 263 249 242 242 237 232 225 213 216 227 235 246 254 261 268 274 281 286 290 294 297 297 296 295 294 292 293 297 299 299 299 299 300 300 300 301 301 300 299 297
236 235 220 209 211 216 218 221 225 228 229 230 231 232 234 236 240 248 257 263 270 277 284 292 300 305 306 303 297 293 293 297 299 298 296 294 294 295 294 290 284 280 282 278 264 250 238 238 239 233 226 221 212 216 226 233 241 249 257 265 273 279 283 288 296 298 295 293 293 293 293 294 297 298 298 298 298 299 299 301 302 301 299 298 295
235 232 215 208 213 219 223 227 228 226 222 221 223 226 230 236 244 255 266 273 279 285 290 297 304 308 307 303 298 298 301 304 303 302 300 298 299 302 299 294 290 281 265 251 242 235 231 233 231 225 222 220 215 221 230 236 245 253 260 267 273 278 282 289 295 296 293 291 292 292 292 295 296 297 298 298 298 299 300 302 303 300 296 294 293
231 221 208 208 215 220 222 222 219 216 214 215 220 226 232 241 253 266 279 285 288 290 294 300 305 306 304 302 301 303 306 308 306 304 301 300 304 308 297 280 268 260 247 239 237 233 228 226 223 220 220 220 221 228 232 237 245 255 264 269 272 277 283 290 294 294 292 291 291 291 293 295 295 297 299 299 299 300 301 303 301 296 293 292 292
208 203 203 208 213 213 212 211 211 211 212 216 221 227 235 249 264 276 286 290 291 294 298 302 303 302 300 299 302 306 309 309 306 302 299 301 308 301 273 253 253 257 246 239 235 227 219 218 219 219 221 223 228 236 241 242 245 254 266 273 276 278 283 290 293 292 290 290 291 292 293 294 295 297 299 299 299 300 301 301 298 293 291 292 295
189 191 196 201 204 205 206 207 210 212 215 220 226 234 243 254 265 276 284 287 288 291 294 297 296 295 295 299 303 307 309 308 304 297 294 299 306 288 255 242 247 255 250 239 228 218 215 219 221 221 222 228 238 249 255 257 260 265 270 274 277 280 284 288 290 288 288 289 291 292 293 294 296 298 298 298 298 299 300 299 296 291 290 292 296
193 194 192 191 193 197 201 206 210 213 217 225 233 241 250 258 267 275 279 280 280 282 286 289 291 293 296 301 304 307 308 305 300 292 290 295 299 281 253 238 241 251 247 231 219 216 220 223 223 222 225 235 247 255 261 267 272 272 271 273 278 282 285 287 286 286 287 289 291 292 294 296 297 297 297 296 297 297 298 297 293 289 290 292 297
199 202 202 201 201 202 202 205 209 214 222 234 247 257 266 274 278 276 272 270 270 274 280 285 290 296 300 302 304 304 303 300 294 289 290 296 291 268 248 239 241 242 231 217 215 220 222 220 222 228 237 246 253 258 265 270 268 267 271 278 283 286 286 285 284 285 287 290 293 295 297 298 298 297 296 295 295 296 297 295 292 289 291 294 298
197 202 206 210 213 214 215 216 224 236 249 261 271 277 279 278 272 264 260 260 264 271 279 286 294 301 303 302 300 298 296 294 290 289 293 296 283 260 240 233 230 220 211 210 213 217 218 220 226 237 246 254 258 263 267 266 263 268 278 285 287 286 284 283 285 287 290 293 294 296 298 299 298 296 295 294 295 295 295 294 292 291 292 294 297
192 196 200 205 210 215 220 227 237 252 266 275 279 277 271 263 258 257 260 264 269 276 284 293 303 307 305 299 294 292 291 290 288 290 294 291 277 253 229 221 217 211 209 211 211 214 220 226 234 247 258 263 263 264 264 263 267 278 287 289 287 286 286 288 290 292 293 293 293 296 299 300 298 295 293 293 295 295 294 293 292 292 293 294 296
186 193 199 206 217 229 241 248 254 261 271 277 275 264 249 247 257 269 273 275 279 285 290 295 299 300 296 291 288 288 290 288 287 289 292 284 269 250 234 226 221 217 217 218 218 222 229 236 248 262 269 266 260 259 263 269 278 288 292 290 289 290 292 294 295 295 295 294 294 297 300 299 296 293 293 293 294 294 293 293 294 293 294 295 297
200 210 219 229 241 253 262 266 265 265 267 267 260 251 251 261 271 275 277 278 281 286 290 291 291 288 284 282 283 284 284 283 284 286 281 268 261 249 241 237 231 227 228 231 233 239 246 256 265 269 267 261 259 263 270 280 289 293 293 292 294 296 297 298 298 298 297 297 297 299 300 298 294 292 291 292 293 293 294 295 296 296 297 298 300
223 233 238 245 254 260 265 267 266 263 265 265 264 264 269 274 274 272 272 274 278 283 287 285 281 278 276 274 274 275 277 279 282 275 233 242 255 251 244 242 238 236 237 240 246 254 262 268 272 271 266 263 266 272 279 287 292 294 295 297 299 299 300 301 301 301 300 299 299 299 298 296 293 291 291 292 293 294 296 297 298 300 301 303 305
237 245 249 254 260 262 266 270 271 271 273 274 274 276 278 276 271 268 268 272 276 279 278 274 271 269 266 264 268 272 272 270 269 239 204 218 236 245 248 247 244 242 244 249 256 263 268 273 274 271 269 270 272 277 283 288 293 296 298 299 300 300 301 303 304 303 301 300 299 299 297 295 293 293 293 294 295 297 298 300 302 303 306 307 310
253 257 259 261 265 268 271 275 277 278 279 279 281 284 284 278 271 269 269 271 272 270 264 260 258 255 253 257 265 262 252 234 214 211 202 201 209 221 236 245 246 246 249 253 259 265 271 274 273 271 271 272 274 277 282 288 293 296 297 299 300 301 302 305 306 303 301 301 300 299 297 296 296 296 296 297 298 299 301 302 304 306 308 309 310
Height
3191 3191 3192 3193 3193 3194 3195 3195 3196 3196 3197 3198 3199 3200 3200 3201 3202 3203 3204 3204 3205 3205 3206 3206 3207 3207 3208 3208 3208 3208 3208 3208 3208 3208 3208 3208 3208 3208 3208 3208 3208 3208 3208 3208 3209 3209 3209 3207 3207 3206 3206 3205 3204 3203 3203 3202 3201 3201 3200 3200 3199 3199 3199 3199 3198 3197 3196 3195 3194 3194 3194 3194 3194 3194 3193 3193 3192 3192 3192 3192 3192 3191 3192 3192 3192
3188 3189 3190 3191 3191 3192 3193 3194 3194 3195 3196 3197 3198 3198 3199 3200 3201 3201 3202 3203 3204 3204 3205 3205 3206 3206 3207 3207 3207 3207 3207 3207 3207 3207 3206 3206 3207 3207 3207 3207 3206 3207 3207 3207 3206 3206 3206 3205 3204 3204 3203 3203 3202 3202 3201 3200 3200 3199 3199 3198 3198 3197 3197 3197 3197 3196 3196 3195 3193 3192 3192 3192 3192 3192 3192 3192 3191 3191 3191 3191 3191 3190 3190 3190 3190
3186 3187 3188 3189 3189 3190 3191 3192 3193 3194 3195 3196 3196 3197 3197 3198 3199 3200 3200 3201 3202 3203 3204 3204 3205 3205 3205 3205 3206 3206 3205 3205 3205 3205 3205 3205 3205 3205 3205 3205 3205 3205 3205 3205 3205 3204 3204 3203 3202 3202 3201 3201 3201 3200 3200 3199 3199 3198 3197 3197 3196 3196 3195 3195 3195 3195 3194 3194 3193 3192 3191 3191 3190 3191 3191 3190 3190 3189 3189 3189 3189 3189 3189 3189 3189
3184 3185 3186 3187 3187 3188 3188 3190 3191 3192 3193 3194 3195 3195 3196 3197 3198 3198 3199 3200 3201 3202 3203 3203 3204 3204 3204 3204 3204 3204 3204 3204 3204 3205 3205 3205 3205 3205 3205 3205 3205 3205 3204 3204 3204 3203 3202 3202 3201 3201 3200 3200 3199 3199 3198 3198 3197 3197 3196 3195 3194 3194 3193 3193 3193 3193 3192 3192 3192 3192 3191 3190 3189 3189 3189 3189 3188 3188 3188 3188 3188 3188 3188 3187 3187
3182 3183 3184 3185 3185 3186 3187 3188 3189 3190 3191 3192 3193 3194 3195 3196 3197 3197 3198 3198 3200 3201 3201 3202 3203 3203 3203 3203 3204 3204 3204 3204 3204 3205 3205 3205 3205 3205 3205 3205 3204 3204 3204 3203 3203 3202 3201 3201 3200 3200 3199 3199 3198 3197 3197 3196 3196 3195 3194 3193 3193 3192 3192 3191 3191 3191 3191 3191 3191 3191 3190 3190 3189 3188 3188 3187 3187 3186 3186 3186 3186 3185 3185 3185 3185
3180 3181 3182 3183 3183 3184 3185 3186 3187 3188 3190 3191 3192 3193 3194 3194 3195 3195 3196 3197 3198 3199 3200 3201 3202 3202 3202 3203 3203 3204 3204 3204 3204 3204 3204 3204 3205 3205 3205 3204 3204 3204 3203 3202 3202 3201 3201 3200 3200 3199 3198 3197 3196 3196 3195 3195 3194 3194 3193 3192 3191 3191 3190 3190 3190 3190 3190 3190 3190 3189 3189 3188 3188 3187 3187 3187 3186 3185 3185 3185 3184 3183 3183 3183 3183
3177 3178 3179 3180 3181 3182 3183 3184 3185 3187 3189 3190 3191 3191 3192 3192 3193 3194 3195 3196 3197 3198 3199 3200 3201 3201 3201 3202 3202 3203 3203 3203 3203 3204 3204 3204 3204 3204 3204 3204 3203 3203 3202 3202 3201 3201 3200 3200 3199 3198 3198 3197 3196 3196 3195 3195 3194 3193 3192 3191 3190 3190 3189 3189 3188 3188 3188 3188 3188 3188 3188 3187 3187 3186 3186 3186 3185 3184 3184 3183 3182 3182 3182 3181 3181
3175 3176 3177 3178 3179 3180 3181 3183 3184 3186 3187 3188 3189 3189 3190 3190 3191 3192 3193 3194 3196 3197 3198 3199 3200 3200 3201 3201 3201 3201 3202 3202 3203 3203 3203 3203 3203 3203 3203 3203 3203 3203 3202 3202 3202 3201 3201 3200 3199 3198 3198 3197 3196 3196 3195 3194 3192 3191 3190 3190 3189 3189 3188 3187 3187 3187 3187 3187 3187 3186 3186 3186 3185 3185 3184 3184 3184 3183 3183 3182 3181 3180 3180 3180 3180
3174 3175 3175 3177 3178 3179 3180 3182 3183 3184 3185 3186 3187 3188 3188 3189 3190 3191 3192 3193 3194 3195 3196 3198 3199 3199 3199 3200 3200 3201 3201 3202 3202 3202 3203 3203 3203 3203 3203 3202 3202 3202 3202 3201 3201 3201 3200 3199 3199 3198 3197 3196 3195 3194 3193 3192 3190 3189 3188 3188 3187 3187 3187 3186 3186 3185 3185 3185 3185 3185 3185 3185 3184 3184 3183 3183 3182 3182 3182 3181 3180 3179 3178 3178 3178
3172 3173 3174 3175 3176 3178 3179 3180 3181 3182 3183 3184 3186 3186 3187 3187 3188 3189 3191 3192 3193 3194 3195 3196 3197 3197 3198 3199 3199 3200 3200 3201 3201 3202 3202 3202 3202 3202 3202 3202 3201 3201 3201 3201 3200 3200 3199 3198 3198 3197 3196 3195 3194 3193 3191 3190 3188 3187 3187 3186 3186 3185 3185 3184 3184 3184 3184 3183 3183 3184 3184 3183 3183 3183 3182 3181 3181 3180 3180 3180 3179 3178 3177 3177 3176
3170 3171 3173 3174 3175 3175 3176 3177 3178 3180 3181 3182 3183 3185 3185 3186 3187 3188 3189 3190 3191 3192 3193 3194 3195 3196 3197 3197 3198 3199 3199 3200 3200 3201 3201 3201 3201 3201 3201 3200 3200 3200 3200 3200 3199 3199 3198 3198 3197 3196 3194 3194 3192 3191 3189 3188 3187 3186 3186 3185 3184 3184 3183 3183 3183 3183 3182 3182 3182 3182 3182 3181 3181 3181 3180 3179 3179 3178 3178 3178 3178 3178 3177 3176 3175
3168 3169 3170 3172 3172 3172 3173 3175 3176 3177 3178 3180 3181 3183 3184 3185 3186 3186 3187 3188 3189 3190 3191 3193 3194 3195 3195 3196 3197 3197 3198 3199 3199 3199 3200 3200 3199 3199 3199 3199 3199 3199 3199 3199 3198 3198 3197 3197 3195 3194 3193 3192 3191 3189 3188 3187 3186 3185 3185 3184 3183 3183 3182 3182 3182 3181 3181 3180 3180 3180 3180 3179 3179 3179 3178 3178 3177 3177 3176 3176 3176 3176 3176 3175 3174
3165 3166 3167 3169 3170 3170 3171 3173 3174 3175 3176 3178 3180 3181 3182 3183 3184 3185 3186 3187 3188 3189 3190 3191 3192 3193 3194 3194 3195 3196 3196 3197 3197 3198 3198 3198 3198 3198 3198 3198 3198 3198 3198 3198 3198 3197 3196 3195 3194 3192 3191 3190 3189 3188 3187 3186 3185 3185 3184 3183 3182 3182 3181 3180 3180 3180 3179 3178 3178 3178 3178 3177 3177 3177 3176 3176 3175 3175 3174 3174 3174 3174 3174 3173 3173
3162 3163 3165 3165 3167 3169 3170 3171 3172 3173 3175 3177 3178 3179 3180 3181 3182 3183 3184 3185 3186 3187 3188 3189 3190 3192 3192 3193 3193 3194 3194 3195 3195 3196 3196 3196 3196 3196 3196 3196 3196 3196 3197 3196 3196 3195 3194 3193 3192 3191 3190 3189 3188 3187 3186 3185 3185 3184 3183 3182 3181 3180 3180 3179 3178 3178 3177 3177 3176 3176 3175 3175 3174 3174 3174 3174 3173 3173 3172 3171 3171 3171 3171 3171 3171
3159 3160 3162 3163 3164 3166 3168 3169 3170 3171 3173 3175 3176 3177 3178 3179 3180 3181 3182 3183 3184 3185 3186 3188 3189 3190 3190 3191 3191 3192 3192 3193 3193 3193 3194 3194 3194 3194 3195 3195 3195 3195 3195 3194 3194 3193 3193 3192 3191 3190 3189 3188 3187 3186 3185 3184 3183 3183 3182 3181 3180 3179 3178 3178 3177 3176 3176 3175 3174 3174 3174 3173 3172 3172 3172 3171 3171 3170 3169 3169 3168 3168 3168 3168 3169
3155 3157 3159 3160 3162 3163 3165 3166 3167 3169 3170 3172 3173 3175 3176 3177 3178 3179 3180 3181 3182 3183 3184 3185 3186 3187 3188 3188 3189 3189 3190 3190 3191 3191 3192 3192 3192 3192 3193 3193 3193 3193 3192 3192 3192 3192 3191 3191 3190 3189 3188 3187 3186 3184 3183 3182 3182 3181 3180 3179 3178 3178 3177 3176 3176 3175 3174 3173 3173 3172 3172 3171 3170 3170 3170 3169 3169 3168 3167 3167 3166 3165 3164 3164 3165
3152 3154 3156 3157 3159 3160 3161 3163 3165 3166 3168 3169 3171 3173 3174 3176 3177 3177 3178 3179 3180 3181 3182 3183 3184 3185 3185 3186 3186 3187 3187 3188 3188 3189 3189 3190 3190 3191 3191 3191 3191 3191 3190 3190 3190 3190 3190 3189 3188 3188 3187 3186 3184 3183 3182 3181 3180 3179 3178 3177 3176 3176 3175 3175 3174 3173 3172 3172 3171 3170 3170 3169 3168 3168 3167 3167 3166 3166 3165 3164 3164 3163 3161 3160 3160
3149 3151 3153 3154 3156 3157 3158 3160 3162 3164 3166 3167 3169 3171 3172 3173 3174 3175 3176 3176 3177 3179 3180 3181 3181 3182 3183 3183 3184 3184 3185 3186 3186 3187 3187 3187 3188 3188 3189 3189 3189 3189 3189 3188 3188 3188 3188 3187 3186 3186 3185 3184 3182 3181 3180 3179 3178 3177 3176 3175 3175 3174 3174 3173 3173 3172 3171 3170 3169 3168 3168 3167 3166 3165 3165 3164 3163 3163 3162 3162 3160 3159 3158 3157 3156
3145 3147 3149 3151 3152 3153 3154 3156 3159 3161 3163 3165 3167 3169 3170 3170 3172 3173 3173 3174 3175 3176 3177 3178 3178 3179 3180 3180 3181 3182 3183 3183 3184 3185 3185 3185 3186 3186 3187 3187 3187 3187 3187 3187 3186 3186 3185 3185 3184 3183 3182 3181 3181 3180 3179 3178 3176 3175 3174 3173 3173 3173 3172 3172 3171 3171 3170 3169 3168 3167 3166 3165 3164 3163 3162 3161 3160 3160 3159 3159 3158 3157 3156 3154 3153
3142 3144 3146 3147 3148 3149 3151 3154 3156 3158 3160 3162 3164 3165 3166 3168 3169 3170 3171 3172 3172 3173 3174 3175 3175 3176 3177 3178 3179 3180 3180 3181 3182 3182 3183 3183 3183 3184 3185 3185 3185 3185 3185 3185 3185 3184 3184 3183 3182 3181 3180 3180 3179 3178 3177 3176 3175 3173 3173 3172 3171 3171 3170 3170 3169 3169 3168 3167 3166 3165 3164 3163 3162 3161 3160 3159 3158 3157 3157 3156 3155 3154 3153 3151 3150
3140 3141 3143 3145 3146 3147 3149 3151 3153 3156 3157 3159 3161 3162 3164 3165 3166 3167 3168 3169 3169 3170 3171 3172 3173 3174 3175 3176 3177 3177 3178 3179 3179 3180 3181 3181 3181 3180 3181 3182 3182 3182 3182 3182 3182 3182 3182 3181 3180 3179 3179 3178 3177 3176 3175 3174 3173 3172 3171 3170 3170 3169 3168 3168 3167 3167 3166 3165 3165 3164 3162 3161 3160 3159 3158 3156 3156 3155 3154 3154 3152 3151 3150 3148 3146
3137 3139 3141 3142 3143 3144 3146 3149 3150 3152 3154 3155 3157 3159 3161 3162 3163 3164 3165 3165 3167 3168 3169 3170 3171 3172 3173 3174 3174 3174 3175 3176 3177 3177 3177 3177 3177 3177 3178 3178 3179 3180 3180 3179 3179 3179 3179 3178 3177 3177 3177 3176 3175 3174 3173 3172 3172 3171 3170 3169 3168 3167 3166 3165 3165 3164 3164 3163 3163 3162 3161 3159 3158 3157 3155 3154 3153 3152 3151 3151 3150 3148 3147 3145 3143
3135 3137 3139 3140 3141 3142 3144 3146 3148 3149 3150 3152 3154 3156 3157 3159 3160 3161 3162 3163 3165 3166 3167 3168 3168 3169 3170 3171 3171 3171 3171 3173 3174 3174 3174 3174 3173 3174 3174 3174 3175 3176 3176 3175 3176 3176 3176 3175 3175 3175 3174 3174 3173 3172 3171 3171 3170 3169 3168 3167 3166 3165 3164 3163 3162 3162 3162 3161 3161 3160 3159 3158 3156 3155 3153 3152 3150 3150 3149 3148 3147 3145 3144 3142 3140
3132 3134 3136 3137 3138 3140 3141 3143 3144 3146 3147 3149 3151 3153 3155 3156 3157 3158 3159 3161 3163 3164 3164 3165 3165 3166 3167 3167 3168 3167 3167 3170 3171 3171 3170 3170 3170 3170 3171 3171 3172 3172 3172 3172 3172 3173 3173 3173 3173 3172 3172 3171 3171 3169 3169 3169 3168 3167 3166 3165 3164 3163 3162 3161 3160 3160 3160 3159 3159 3158 3157 3155 3154 3152 3151 3150 3148 3147 3146 3144 3143 3142 3140 3138 3137
3130 3131 3133 3134 3136 3137 3138 3139 3141 3142 3144 3146 3148 3150 3151 3153 3154 3156 3157 3159 3160 3161 3161 3162 3163 3163 3163 3165 3164 3162 3163 3166 3166 3166 3166 3167 3167 3168 3168 3169 3169 3169 3169 3169 3169 3169 3170 3170 3170 3170 3170 3169 3168 3167 3167 3167 3166 3165 3164 3163 3162 3161 3159 3158 3158 3158 3157 3157 3157 3156 3155 3153 3151 3150 3149 3147 3146 3144 3143 3141 3140 3139 3137 3135 3133
3127 3129 3130 3132 3133 3135 3136 3137 3138 3140 3142 3144 3146 3147 3148 3150 3151 3153 3155 3157 3158 3158 3158 3159 3160 3160 3161 3161 3158 3157 3159 3160 3160 3160 3161 3163 3164 3164 3164 3165 3166 3166 3166 3165 3166 3166 3166 3166 3166 3166 3166 3166 3166 3165 3164 3164 3164 3163 3162 3161 3160 3159 3157 3156 3156 3156 3155 3155 3154 3153 3152 3150 3149 3147 3146 3145 3143 3142 3140 3139 3137 3136 3134 3132 3130
3125 3127 3128 3130 3131 3133 3134 3135 3136 3138 3139 3141 3143 3144 3146 3147 3149 3151 3153 3154 3155 3156 3156 3157 3157 3158 3157 3155 3153 3152 3153 3153 3153 3154 3155 3156 3158 3158 3158 3160 3161 3161 3162 3162 3161 3161 3161 3162 3162 3162 3163 3163 3163 3162 3162 3161 3161 3160 3159 3158 3157 3156 3155 3154 3154 3153 3152 3152 3151 3150 3149 3147 3146 3144 3143 3142 3140 3139 3137 3136 3135 3133 3131 3129 3127
3123 3125 3126 3127 3129 3130 3132 3133 3134 3136 3137 3139 3140 3142 3143 3145 3147 3149 3150 3151 3152 3153 3153 3154 3154 3153 3152 3150 3149 3148 3148 3148 3146 3147 3150 3152 3153 3153 3153 3155 3156 3156 3156 3156 3156 3156 3157 3157 3158 3158 3159 3159 3160 3160 3159 3158 3158 3157 3156 3156 3155 3154 3153 3152 3151 3151 3150 3149 3148 3146 3145 3144 3143 3141 3140 3139 3137 3136 3134 3132 3131 3130 3128 3125 3124
3120 3122 3124 3125 3126 3128 3129 3131 3132 3134 3135 3137 3138 3140 3141 3143 3145 3146 3148 3149 3150 3150 3151 3151 3150 3149 3147 3147 3146 3144 3144 3143 3138 3140 3147 3150 3150 3151 3151 3151 3152 3152 3151 3151 3149 3149 3151 3152 3153 3154 3155 3156 3157 3157 3157 3156 3156 3155 3154 3153 3153 3152 3151 3150 3149 3148 3147 3146 3145 3144 3143 3141 3140 3138 3137 3136 3134 3132 3130 3129 3127 3126 3124 3122 3120
3118 3120 3122 3123 3124 3125 3127 3129 3130 3132 3133 3135 3137 3138 3140 3142 3143 3145 3146 3146 3147 3147 3147 3147 3146 3145 3144 3143 3142 3140 3140 3138 3132 3132 3140 3146 3147 3149 3150 3149 3148 3147 3146 3145 3143 3144 3146 3147 3148 3149 3151 3152 3154 3155 3155 3154 3153 3152 3151 3151 3150 3149 3148 3147 3147 3145 3144 3143 3142 3141 3140 3138 3137 3136 3134 3132 3131 3129 3127 3125 3123 3121 3120 3118 3116
3116 3118 3119 3121 3122 3123 3125 3126 3128 3130 3132 3134 3135 3137 3138 3139 3141 3142 3143 3143 3143 3143 3143 3143 3141 3140 3139 3138 3137 3136 3135 3133 3127 3124 3129 3138 3143 3145 3145 3143 3141 3140 3139 3138 3137 3138 3140 3142 3143 3145 3146 3149 3151 3152 3152 3152 3151 3150 3149 3148 3147 3146 3145 3145 3144 3143 3142 3141 3139 3138 3136 3135 3134 3132 3131 3129 3127 3125 3123 3121 3119 3118 3116 3114 3112
3114 3116 3117 3118 3120 3121 3122 3124 3126 3128 3130 3131 3133 3134 3135 3137 3138 3139 3139 3139 3139 3139 3139 3139 3137 3136 3135 3134 3134 3133 3132 3130 3125 3120 3123 3131 3136 3136 3136 3134 3133 3133 3132 3131 3131 3130 3133 3136 3137 3138 3140 3143 3146 3148 3148 3148 3148 3147 3147 3146 3145 3144 3143 3142 3141 3140 3139 3138 3136 3134 3132 3131 3130 3129 3127 3125 3123 3121 3120 3117 3115 3114 3112 3110 3108
3112 3112 3114 3115 3117 3119 3121 3122 3124 3126 3127 3129 3130 3132 3133 3134 3134 3135 3136 3136 3136 3136 3136 3135 3134 3132 3132 3131 3130 3130 3128 3127 3124 3121 3122 3125 3125 3127 3128 3128 3127 3127 3126 3126 3125 3125 3128 3131 3130 3131 3133 3135 3138 3140 3142 3144 3145 3145 3144 3143 3142 3141 3140 3139 3138 3137 3136 3135 3133 3132 3130 3128 3127 3125 3123 3121 3119 3117 3116 3114 3112 3110 3108 3106 3105
3108 3109 3111 3113 3115 3117 3119 3120 3122 3123 3125 3126 3127 3128 3129 3130 3131 3132 3133 3133 3133 3133 3133 3132 3131 3129 3128 3128 3126 3125 3125 3124 3123 3121 3121 3120 3119 3120 3122 3122 3121 3119 3118 3118 3116 3118 3124 3127 3126 3128 3129 3128 3130 3134 3137 3140 3141 3141 3141 3140 3139 3138 3137 3136 3135 3134 3133 3131 3130 3128 3126 3125 3124 3122 3120 3118 3115 3113 3111 3109 3108 3106 3104 3102 3100
3104 3105 3108 3110 3112 3114 3116 3117 3119 3121 3122 3123 3124 3125 3126 3127 3127 3128 3129 3129 3130 3130 3129 3128 3127 3126 3125 3124 3123 3122 3121 3121 3120 3119 3118 3117 3116 3117 3117 3115 3113 3111 3110 3110 3109 3112 3120 3122 3122 3124 3125 3124 3127 3130 3132 3135 3136 3137 3137 3136 3135 3135 3134 3133 3132 3130 3129 3127 3126 3124 3122 3122 3120 3118 3116 3114 3111 3109 3107 3105 3103 3102 3100 3098 3096
3101 3102 3105 3107 3109 3112 3114 3115 3117 3118 3119 3120 3121 3122 3122 3123 3124 3125 3126 3126 3127 3127 3126 3125 3124 3123 3122 3121 3120 3119 3117 3117 3116 3115 3114 3112 3111 3111 3111 3110 3107 3105 3106 3107 3105 3109 3115 3118 3117 3119 3121 3123 3124 3125 3127 3130 3132 3133 3133 3132 3132 3131 3130 3129 3128 3126 3125 3123 3122 3120 3119 3117 3116 3114 3112 3110 3107 3105 3103 3101 3099 3097 3096 3094 3092
3097 3098 3102 3105 3107 3109 3111 3112 3113 3114 3115 3116 3117 3118 3119 3120 3121 3122 3123 3123 3124 3123 3123 3122 3121 3120 3119 3118 3117 3116 3114 3113 3112 3111 3110 3108 3105 3103 3103 3102 3100 3101 3104 3105 3104 3107 3111 3112 3112 3115 3118 3120 3120 3121 3123 3125 3127 3128 3129 3128 3128 3127 3126 3125 3124 3123 3121 3119 3118 3117 3115 3114 3112 3110 3108 3106 3103 3101 3099 3097 3095 3093 3091 3090 3088
3092 3094 3098 3101 3103 3105 3106 3107 3109 3110 3111 3112 3113 3114 3115 3117 3118 3119 3120 3120 3120 3120 3119 3119 3118 3117 3116 3115 3113 3112 3111 3110 3108 3107 3105 3102 3099 3096 3094 3093 3094 3097 3099 3101 3101 3104 3106 3107 3108 3112 3115 3116 3117 3118 3119 3121 3122 3123 3124 3124 3124 3123 3122 3121 3120 3118 3117 3115 3114 3112 3111 3110 3108 3105 3104 3102 3099 3097 3095 3092 3090 3088 3087 3086 3085
3088 3090 3093 3096 3098 3100 3102 3103 3105 3106 3107 3108 3110 3111 3112 3114 3115 3116 3116 3116 3116 3116 3115 3115 3114 3113 3112 3111 3110 3109 3108 3106 3104 3102 3100 3097 3095 3093 3091 3091 3093 3094 3095 3096 3098 3100 3102 3104 3107 3110 3112 3114 3116 3116 3117 3118 3119 3120 3120 3120 3120 3119 3119 3118 3116 3114 3113 3111 3110 3108 3107 3106 3103 3101 3100 3097 3095 3093 3091 3088 3086 3084 3083 3082 3081
3084 3087 3090 3092 3094 3096 3098 3099 3101 3102 3104 3105 3107 3108 3110 3111 3112 3112 3112 3112 3112 3112 3111 3111 3110 3109 3108 3107 3106 3105 3104 3102 3100 3098 3096 3094 3092 3091 3090 3092 3093 3093 3094 3095 3096 3097 3100 3103 3105 3108 3110 3112 3113 3113 3114 3115 3116 3117 3117 3117 3115 3115 3115 3113 3112 3110 3109 3107 3106 3104 3103 3101 3099 3097 3095 3093 3091 3089 3087 3084 3083 3081 3080 3079 3078
3081 3084 3086 3088 3090 3092 3094 3096 3097 3099 3101 3102 3103 3105 3106 3107 3108 3108 3108 3109 3108 3108 3107 3107 3106 3105 3104 3103 3102 3101 3100 3099 3097 3095 3093 3091 3089 3088 3089 3091 3092 3092 3093 3093 3094 3096 3098 3101 3103 3105 3107 3109 3110 3111 3112 3113 3113 3113 3113 3112 3110 3110 3110 3109 3107 3106 3105 3104 3102 3100 3098 3097 3095 3093 3091 3089 3087 3085 3083 3081 3079 3078 3077 3075 3074
3078 3081 3083 3085 3086 3088 3090 3092 3094 3096 3097 3098 3100 3101 3102 3103 3104 3104 3105 3106 3106 3105 3104 3103 3102 3102 3101 3100 3099 3098 3096 3095 3094 3092 3090 3088 3086 3086 3087 3088 3089 3090 3091 3091 3093 3095 3097 3099 3101 3103 3105 3107 3108 3109 3110 3110 3110 3110 3109 3108 3107 3106 3106 3105 3103 3102 3101 3100 3098 3096 3094 3093 3091 3089 3087 3085 3083 3081 3079 3078 3076 3075 3073 3072 3071
3076 3078 3079 3081 3083 3085 3087 3088 3091 3092 3094 3096 3097 3098 3099 3100 3101 3101 3102 3103 3103 3102 3101 3100 3099 3098 3098 3097 3096 3094 3093 3092 3090 3089 3087 3086 3084 3084 3085 3086 3087 3088 3089 3090 3092 3094 3096 3098 3100 3102 3103 3105 3106 3106 3106 3105 3105 3105 3105 3105 3104 3103 3102 3101 3099 3099 3098 3096 3094 3092 3090 3088 3086 3085 3083 3081 3079 3078 3076 3075 3073 3071 3070 3069 3067
3074 3076 3077 3079 3081 3083 3085 3087 3089 3091 3092 3094 3095 3097 3097 3098 3098 3098 3098 3099 3099 3098 3098 3097 3096 3096 3095 3094 3092 3091 3090 3088 3087 3086 3085 3083 3082 3082 3083 3084 3086 3087 3087 3089 3091 3093 3095 3097 3099 3101 3102 3103 3103 3102 3102 3101 3101 3102 3102 3101 3100 3099 3098 3097 3096 3095 3093 3091 3089 3087 3086 3084 3082 3081 3079 3077 3076 3074 3073 3071 3069 3068 3067 3065 3064
3073 3075 3076 3077 3079 3082 3084 3087 3090 3090 3091 3092 3094 3095 3095 3095 3096 3096 3095 3095 3095 3095 3094 3094 3093 3093 3091 3090 3089 3087 3086 3085 3084 3083 3082 3081 3080 3080 3081 3082 3084 3085 3086 3087 3089 3091 3093 3095 3097 3099 3100 3100 3099 3098 3097 3097 3098 3098 3098 3097 3096 3095 3094 3093 3092 3090 3088 3086 3085 3083 3081 3080 3078 3076 3075 3073 3072 3071 3069 3068 3066 3064 3063 3062 3061
3073 3074 3076 3077 3078 3080 3083 3085 3087 3087 3088 3089 3090 3092 3092 3093 3094 3094 3093 3092 3091 3091 3090 3090 3089 3089 3088 3087 3086 3085 3084 3083 3082 3081 3080 3079 3078 3078 3079 3080 3082 3083 3084 3086 3088 3090 3092 3094 3096 3097 3097 3095 3094 3094 3094 3094 3094 3094 3094 3093 3092 3091 3090 3089 3087 3085 3083 3082 3080 3079 3077 3075 3074 3072 3071 3070 3068 3067 3066 3064 3062 3061 3060 3059 3057
3073 3074 3075 3076 3078 3079 3081 3082 3083 3083 3084 3086 3087 3089 3090 3090 3091 3092 3091 3089 3088 3088 3087 3086 3085 3085 3084 3084 3083 3082 3082 3081 3080 3079 3078 3077 3077 3077 3078 3079 3081 3082 3083 3085 3087 3089 3091 3093 3094 3093 3092 3091 3090 3090 3091 3091 3091 3090 3089 3089 3088 3087 3086 3084 3082 3080 3078 3077 3076 3074 3072 3071 3070 3068 3067 3066 3065 3063 3062 3060 3059 3058 3057 3056 3054
3071 3072 3073 3075 3076 3077 3078 3078 3079 3081 3083 3084 3085 3086 3086 3087 3088 3088 3087 3085 3085 3084 3083 3082 3081 3081 3081 3081 3080 3080 3079 3079 3078 3077 3076 3076 3076 3077 3078 3079 3080 3081 3083 3085 3087 3089 3090 3091 3091 3089 3088 3088 3088 3087 3087 3087 3087 3086 3085 3085 3084 3082 3081 3079 3077 3076 3074 3072 3071 3070 3068 3067 3066 3064 3063 3062 3061 3059 3058 3057 3056 3055 3053 3052 3050
3069 3070 3072 3073 3074 3074 3075 3076 3077 3079 3080 3082 3083 3083 3083 3083 3083 3083 3082 3081 3080 3080 3079 3078 3078 3077 3078 3078 3078 3077 3077 3077 3076 3075 3074 3074 3075 3076 3077 3078 3080 3081 3083 3085 3086 3087 3087 3087 3087 3086 3085 3085 3084 3084 3083 3083 3083 3082 3081 3081 3080 3078 3077 3075 3073 3071 3070 3068 3067 3066 3064 3063 3062 3061 3059 3058 3057 3056 3055 3054 3053 3052 3050 3048 3047
3068 3069 3070 3070 3070 3071 3072 3073 3075 3076 3077 3078 3078 3078 3078 3078 3077 3076 3076 3076 3076 3076 3076 3075 3075 3075 3075 3075 3075 3075 3075 3075 3074 3073 3073 3074 3075 3076 3077 3078 3079 3081 3082 3083 3084 3084 3084 3083 3083 3083 3083 3082 3081 3080 3080 3080 3079 3079 3078 3077 3076 3074 3072 3071 3069 3067 3066 3064 3063 3062 3060 3059 3058 3057 3056 3054 3053 3052 3051 3050 3049 3048 3047 3045 3043
3066 3066 3067 3067 3067 3069 3070 3071 3072 3073 3073 3073 3073 3073 3073 3072 3072 3072 3072 3072 3072 3072 3072 3073 3073 3073 3073 3072 3073 3073 3073 3073 3073 3073 3072 3073 3073 3074 3075 3077 3078 3079 3080 3081 3081 3081 3081 3080 3080 3080 3080 3079 3078 3077 3077 3076 3076 3075 3074 3073 3072 3070 3069 3067 3066 3064 3062 3060 3059 3058 3057 3055 3054 3053 3052 3051 3050 3049 3048 3047 3046 3045 3044 3042 3040